| time (UTC) | temp C | wind direction | speed KPH | gust KPH | rain 1hr cm | rain 24hr cm | rain mn cm | humidity % | barometer mb |
| 20260904162028 | 22 | 230 | 8.0 | 24.1 | 0.00 | 0.00 | 0.00 | 62 | 1008.5 |
| 20260904161526 | 22 | 256 | 9.7 | 20.9 | 0.00 | 0.00 | 0.00 | 62 | 1008.7 |
| 20260904161024 | 22 | 243 | 8.0 | 22.5 | 0.00 | 0.00 | 0.00 | 62 | 1008.8 |
| 20260904160522 | 22 | 227 | 8.0 | 16.1 | 0.00 | 0.00 | 0.00 | 62 | 1008.8 |
| 20260904160020 | 22 | 222 | 8.0 | 16.1 | 0.00 | 0.00 | 0.00 | 62 | 1009.0 |
| 20260904155518 | 22 | 241 | 6.4 | 16.1 | 0.00 | 0.00 | 0.00 | 62 | 1009.0 |
| 20260904155016 | 22 | 232 | 6.4 | 20.9 | 0.00 | 0.00 | 0.00 | 62 | 1009.1 |
| 20260904154535 | 22 | 235 | 6.4 | 17.7 | 0.00 | 0.00 | 0.00 | 61 | 1009.1 |
| 20260904154033 | 22 | 233 | 6.4 | 12.9 | 0.00 | 0.00 | 0.00 | 61 | 1009.3 |
| 20260904153531 | 22 | 241 | 8.0 | 14.5 | 0.00 | 0.00 | 0.00 | 61 | 1009.3 |
| 20260904153029 | 22 | 257 | 8.0 | 17.7 | 0.00 | 0.00 | 0.00 | 61 | 1009.5 |
| 20260904152527 | 22 | 249 | 8.0 | 20.9 | 0.00 | 0.00 | 0.00 | 61 | 1009.6 |
| 20260904152025 | 22 | 242 | 4.8 | 11.3 | 0.00 | 0.00 | 0.00 | 61 | 1009.6 |
| 20260904151523 | 22 | 255 | 6.4 | 20.9 | 0.00 | 0.00 | 0.00 | 61 | 1009.7 |
| 20260904151021 | 22 | 246 | 9.7 | 16.1 | 0.00 | 0.00 | 0.00 | 61 | 1009.8 |
| 20260904150519 | 22 | 225 | 9.7 | 24.1 | 0.00 | 0.00 | 0.00 | 61 | 1009.8 |
| 20260904150017 | 22 | 253 | 8.0 | 20.9 | 0.00 | 0.00 | 0.00 | 61 | 1009.9 |
| 20260904145535 | 22 | 236 | 9.7 | 17.7 | 0.00 | 0.00 | 0.00 | 60 | 1010.0 |
| 20260904145033 | 22 | 242 | 9.7 | 20.9 | 0.00 | 0.00 | 0.00 | 60 | 1010.1 |
| 20260904144530 | 22 | 241 | 8.0 | 22.5 | 0.00 | 0.00 | 0.00 | 59 | 1010.1 |
| 20260904144028 | 22 | 263 | 9.7 | 22.5 | 0.00 | 0.00 | 0.00 | 59 | 1010.1 |
| 20260904143526 | 22 | 282 | 9.7 | 24.1 | 0.00 | 0.00 | 0.00 | 59 | 1010.2 |
| 20260904143024 | 22 | 268 | 8.0 | 17.7 | 0.00 | 0.00 | 0.00 | 59 | 1010.3 |
| 20260904142522 | 22 | 275 | 11.3 | 25.7 | 0.00 | 0.00 | 0.00 | 59 | 1010.4 |
| 20260904142020 | 22 | 266 | 9.7 | 17.7 | 0.00 | 0.00 | 0.00 | 59 | 1010.6 |
| 20260904141518 | 22 | 269 | 12.9 | 25.7 | 0.00 | 0.00 | 0.00 | 59 | 1010.7 |
| 20260904141048 | 22 | 287 | 11.3 | 27.4 | 0.00 | 0.00 | 0.00 | 58 | 1010.7 |
| 20260904141016 | 22 | 287 | 11.3 | 27.4 | 0.00 | 0.00 | 0.00 | 58 | 1010.7 |
| 20260904140535 | 22 | 281 | 12.9 | 27.4 | 0.00 | 0.00 | 0.00 | 58 | 1010.7 |
| 20260904140033 | 22 | 269 | 12.9 | 25.7 | 0.00 | 0.00 | 0.00 | 58 | 1010.8 |
| 20260904135531 | 22 | 278 | 11.3 | 25.7 | 0.00 | 0.00 | 0.00 | 58 | 1010.9 |
| 20260904135029 | 22 | 281 | 16.1 | 33.8 | 0.00 | 0.00 | 0.00 | 58 | 1011.0 |
| 20260904134527 | 22 | 252 | 9.7 | 24.1 | 0.00 | 0.00 | 0.00 | 59 | 1011.0 |
| 20260904134025 | 22 | 246 | 8.0 | 24.1 | 0.00 | 0.00 | 0.00 | 60 | 1011.0 |
| 20260904133523 | 22 | 259 | 8.0 | 17.7 | 0.00 | 0.00 | 0.00 | 60 | 1010.8 |
| 20260904133022 | 22 | 273 | 9.7 | 20.9 | 0.00 | 0.00 | 0.00 | 60 | 1011.1 |
| 20260904132520 | 22 | 284 | 11.3 | 22.5 | 0.00 | 0.00 | 0.00 | 60 | 1011.3 |
| 20260904132017 | 22 | 256 | 12.9 | 24.1 | 0.00 | 0.00 | 0.00 | 60 | 1011.3 |
| 20260904131516 | 22 | 270 | 9.7 | 24.1 | 0.00 | 0.00 | 0.00 | 60 | 1011.3 |
| 20260904131034 | 22 | 250 | 9.7 | 22.5 | 0.00 | 0.00 | 0.00 | 60 | 1011.5 |
| 20260904130532 | 22 | 285 | 11.3 | 20.9 | 0.00 | 0.00 | 0.00 | 60 | 1011.8 |
| 20260904130030 | 22 | 265 | 11.3 | 25.7 | 0.00 | 0.00 | 0.00 | 60 | 1011.7 |
| 20260904125528 | 22 | 261 | 8.0 | 22.5 | 0.00 | 0.00 | 0.00 | 59 | 1011.7 |
| 20260904125027 | 22 | 274 | 11.3 | 24.1 | 0.00 | 0.00 | 0.00 | 59 | 1011.7 |
| 20260904124525 | 22 | 284 | 12.9 | 29.0 | 0.00 | 0.00 | 0.00 | 59 | 1011.7 |
| 20260904124023 | 22 | 273 | 14.5 | 30.6 | 0.00 | 0.00 | 0.00 | 60 | 1011.8 |
| 20260904123521 | 22 | 275 | 12.9 | 30.6 | 0.00 | 0.00 | 0.00 | 60 | 1012.1 |
| 20260904123019 | 22 | 268 | 11.3 | 29.0 | 0.00 | 0.00 | 0.00 | 61 | 1012.2 |
| 20260904122517 | 22 | 289 | 8.0 | 17.7 | 0.00 | 0.00 | 0.00 | 61 | 1012.4 |
| 20260904122035 | 22 | 267 | 8.0 | 16.1 | 0.00 | 0.00 | 0.00 | 60 | 1012.5 |
| 20260904121534 | 22 | 256 | 11.3 | 25.7 | 0.00 | 0.00 | 0.00 | 60 | 1012.4 |
| 20260904121031 | 22 | 262 | 14.5 | 35.4 | 0.00 | 0.00 | 0.00 | 60 | 1012.4 |
| 20260904120530 | 22 | 282 | 12.9 | 30.6 | 0.00 | 0.00 | 0.00 | 60 | 1012.5 |
| 20260904120028 | 22 | 291 | 14.5 | 24.1 | 0.00 | 0.00 | 0.00 | 60 | 1012.5 |
| 20260904115526 | 22 | 278 | 14.5 | 29.0 | 0.00 | 0.00 | 0.00 | 61 | 1012.5 |
| 20260904115024 | 21 | 289 | 11.3 | 29.0 | 0.00 | 0.00 | 0.00 | 62 | 1012.5 |
| 20260904114522 | 21 | 279 | 11.3 | 27.4 | 0.00 | 0.00 | 0.00 | 63 | 1012.6 |
| 20260904114020 | 21 | 258 | 11.3 | 25.7 | 0.00 | 0.00 | 0.00 | 62 | 1012.7 |
| 20260904113518 | 21 | 273 | 9.7 | 24.1 | 0.00 | 0.00 | 0.00 | 63 | 1012.7 |
| 20260904113049 | 21 | 284 | 11.3 | 27.4 | 0.00 | 0.00 | 0.00 | 63 | 1012.9 |
| 20260904113016 | 21 | 284 | 11.3 | 27.4 | 0.00 | 0.00 | 0.00 | 63 | 1012.9 |
| 20260904112534 | 21 | 247 | 12.9 | 25.7 | 0.00 | 0.00 | 0.00 | 63 | 1013.1 |
| 20260904112032 | 21 | 279 | 12.9 | 30.6 | 0.00 | 0.00 | 0.00 | 63 | 1013.2 |
| 20260904111531 | 21 | 278 | 12.9 | 25.7 | 0.00 | 0.00 | 0.00 | 63 | 1013.2 |
| 20260904111029 | 21 | 274 | 9.7 | 22.5 | 0.00 | 0.00 | 0.00 | 64 | 1013.3 |
| 20260904110527 | 21 | 277 | 11.3 | 33.8 | 0.00 | 0.00 | 0.00 | 63 | 1013.3 |
| 20260904110025 | 21 | 262 | 12.9 | 29.0 | 0.00 | 0.00 | 0.00 | 64 | 1013.3 |
| 20260904105523 | 21 | 282 | 12.9 | 30.6 | 0.00 | 0.00 | 0.00 | 64 | 1013.4 |
| 20260904105022 | 21 | 286 | 12.9 | 38.6 | 0.00 | 0.00 | 0.00 | 65 | 1013.5 |
| 20260904104519 | 21 | 268 | 16.1 | 29.0 | 0.00 | 0.00 | 0.00 | 66 | 1013.6 |
| 20260904104018 | 21 | 262 | 8.0 | 22.5 | 0.00 | 0.00 | 0.00 | 66 | 1013.5 |
| 20260904103516 | 21 | 281 | 9.7 | 22.5 | 0.00 | 0.00 | 0.00 | 66 | 1013.5 |
| 20260904103034 | 21 | 281 | 11.3 | 33.8 | 0.00 | 0.00 | 0.00 | 66 | 1013.5 |
| 20260904102532 | 21 | 276 | 11.3 | 22.5 | 0.00 | 0.00 | 0.00 | 66 | 1013.7 |
| 20260904102030 | 21 | 252 | 12.9 | 29.0 | 0.00 | 0.00 | 0.00 | 66 | 1013.7 |
| 20260904101528 | 21 | 280 | 11.3 | 25.7 | 0.00 | 0.00 | 0.00 | 67 | 1013.7 |
| 20260904101026 | 20 | 267 | 11.3 | 22.5 | 0.00 | 0.00 | 0.00 | 67 | 1013.7 |
| 20260904100525 | 20 | 283 | 9.7 | 24.1 | 0.00 | 0.00 | 0.00 | 68 | 1013.7 |
| 20260904100023 | 20 | 271 | 8.0 | 22.5 | 0.00 | 0.00 | 0.00 | 68 | 1013.7 |
| 20260904095521 | 20 | 280 | 9.7 | 24.1 | 0.00 | 0.00 | 0.00 | 68 | 1013.7 |
| 20260904095019 | 20 | 278 | 14.5 | 33.8 | 0.00 | 0.00 | 0.00 | 68 | 1013.8 |
| 20260904094517 | 20 | 271 | 12.9 | 30.6 | 0.00 | 0.00 | 0.00 | 68 | 1013.8 |
| 20260904094047 | 20 | 278 | 12.9 | 33.8 | 0.00 | 0.00 | 0.00 | 68 | 1014.0 |
| 20260904094015 | 20 | 278 | 12.9 | 33.8 | 0.00 | 0.00 | 0.00 | 68 | 1014.0 |
| 20260904093534 | 20 | 270 | 12.9 | 22.5 | 0.00 | 0.00 | 0.00 | 69 | 1013.9 |
| 20260904093032 | 20 | 279 | 11.3 | 29.0 | 0.00 | 0.00 | 0.00 | 69 | 1014.0 |
| 20260904092530 | 20 | 280 | 11.3 | 29.0 | 0.00 | 0.00 | 0.00 | 70 | 1013.9 |
| 20260904092028 | 20 | 286 | 8.0 | 20.9 | 0.00 | 0.00 | 0.00 | 71 | 1013.9 |
| 20260904091526 | 20 | 278 | 8.0 | 20.9 | 0.00 | 0.00 | 0.00 | 72 | 1014.0 |
| 20260904091024 | 19 | 284 | 6.4 | 20.9 | 0.00 | 0.00 | 0.00 | 71 | 1014.0 |
| 20260904090523 | 19 | 289 | 11.3 | 22.5 | 0.00 | 0.00 | 0.00 | 71 | 1014.1 |
| 20260904090021 | 19 | 272 | 9.7 | 20.9 | 0.00 | 0.00 | 0.00 | 71 | 1014.1 |
| 20260904085520 | 19 | 272 | 9.7 | 24.1 | 0.00 | 0.00 | 0.00 | 72 | 1014.2 |
| 20260904085048 | 19 | 265 | 8.0 | 24.1 | 0.00 | 0.00 | 0.00 | 72 | 1014.2 |
| 20260904085017 | 19 | 265 | 8.0 | 24.1 | 0.00 | 0.00 | 0.00 | 72 | 1014.2 |
| 20260904084535 | 19 | 277 | 6.4 | 20.9 | 0.00 | 0.00 | 0.00 | 73 | 1014.3 |
| 20260904084033 | 19 | 298 | 4.8 | 11.3 | 0.00 | 0.00 | 0.00 | 73 | 1014.2 |
| 20260904083531 | 19 | 277 | 6.4 | 16.1 | 0.00 | 0.00 | 0.00 | 73 | 1014.2 |
| 20260904083030 | 19 | 267 | 6.4 | 14.5 | 0.00 | 0.00 | 0.00 | 73 | 1014.1 |
| 20260904082528 | 19 | 274 | 11.3 | 17.7 | 0.00 | 0.00 | 0.00 | 73 | 1014.2 |
| 20260904082026 | 19 | 290 | 8.0 | 14.5 | 0.00 | 0.00 | 0.00 | 74 | 1014.5 |
| 20260904081524 | 18 | 271 | 9.7 | 17.7 | 0.00 | 0.00 | 0.00 | 74 | 1014.5 |
| 20260904081022 | 18 | 268 | 8.0 | 16.1 | 0.00 | 0.00 | 0.00 | 74 | 1014.4 |
| 20260904080520 | 18 | 269 | 9.7 | 20.9 | 0.00 | 0.00 | 0.00 | 73 | 1014.4 |
| 20260904080019 | 18 | 270 | 9.7 | 22.5 | 0.00 | 0.00 | 0.00 | 73 | 1014.2 |
| 20260904075517 | 18 | 268 | 9.7 | 25.7 | 0.00 | 0.00 | 0.00 | 73 | 1014.2 |
| 20260904075035 | 18 | 277 | 12.9 | 25.7 | 0.00 | 0.00 | 0.00 | 74 | 1014.1 |
| 20260904074533 | 18 | 275 | 9.7 | 20.9 | 0.00 | 0.00 | 0.00 | 75 | 1014.1 |
| 20260904074031 | 18 | 278 | 9.7 | 22.5 | 0.00 | 0.00 | 0.00 | 75 | 1014.2 |
| 20260904073529 | 18 | 270 | 11.3 | 35.4 | 0.00 | 0.00 | 0.00 | 75 | 1014.2 |
| 20260904073028 | 18 | 267 | 9.7 | 20.9 | 0.00 | 0.00 | 0.00 | 75 | 1014.2 |
| 20260904072526 | 18 | 270 | 11.3 | 22.5 | 0.00 | 0.00 | 0.00 | 75 | 1014.0 |
| 20260904072024 | 18 | 274 | 9.7 | 22.5 | 0.00 | 0.00 | 0.00 | 76 | 1014.0 |
| 20260904071522 | 18 | 267 | 8.0 | 20.9 | 0.00 | 0.00 | 0.00 | 76 | 1014.1 |
| 20260904071020 | 17 | 282 | 9.7 | 24.1 | 0.00 | 0.00 | 0.00 | 77 | 1014.2 |
| 20260904070518 | 17 | 292 | 8.0 | 20.9 | 0.00 | 0.00 | 0.00 | 77 | 1014.2 |
| 20260904070016 | 17 | 280 | 9.7 | 16.1 | 0.00 | 0.00 | 0.00 | 77 | 1014.3 |
| 20260904065535 | 17 | 275 | 9.7 | 20.9 | 0.00 | 0.00 | 0.00 | 77 | 1014.4 |
| 20260904065033 | 17 | 286 | 8.0 | 17.7 | 0.00 | 0.00 | 0.00 | 77 | 1014.4 |
| 20260904064531 | 17 | 287 | 8.0 | 22.5 | 0.00 | 0.00 | 0.00 | 77 | 1014.4 |
| 20260904064029 | 17 | 278 | 9.7 | 25.7 | 0.00 | 0.00 | 0.00 | 77 | 1014.4 |
| 20260904063527 | 17 | 269 | 8.0 | 17.7 | 0.00 | 0.00 | 0.00 | 76 | 1014.5 |
| 20260904063025 | 17 | 295 | 6.4 | 16.1 | 0.00 | 0.00 | 0.00 | 76 | 1014.5 |
| 20260904062523 | 17 | 283 | 8.0 | 20.9 | 0.00 | 0.00 | 0.00 | 76 | 1014.5 |
| 20260904062021 | 17 | 271 | 6.4 | 12.9 | 0.00 | 0.00 | 0.00 | 76 | 1014.5 |
| 20260904061520 | 17 | 279 | 8.0 | 17.7 | 0.00 | 0.00 | 0.00 | 76 | 1014.3 |
| 20260904061049 | 17 | 276 | 8.0 | 16.1 | 0.00 | 0.00 | 0.00 | 76 | 1014.4 |
| 20260904061017 | 17 | 276 | 8.0 | 16.1 | 0.00 | 0.00 | 0.00 | 76 | 1014.4 |
| 20260904060535 | 17 | 286 | 6.4 | 12.9 | 0.00 | 0.00 | 0.00 | 76 | 1014.4 |
| 20260904060034 | 17 | 274 | 8.0 | 22.5 | 0.00 | 0.00 | 0.00 | 76 | 1014.2 |
| 20260904055531 | 17 | 261 | 9.7 | 20.9 | 0.00 | 0.00 | 0.00 | 76 | 1014.2 |
| 20260904055029 | 17 | 292 | 11.3 | 24.1 | 0.00 | 0.00 | 0.00 | 76 | 1014.2 |
| 20260904054527 | 17 | 276 | 8.0 | 20.9 | 0.00 | 0.00 | 0.00 | 76 | 1014.3 |
| 20260904054024 | 17 | 282 | 8.0 | 12.9 | 0.00 | 0.00 | 0.00 | 75 | 1014.2 |
| 20260904053523 | 17 | 268 | 6.4 | 17.7 | 0.00 | 0.00 | 0.00 | 75 | 1014.1 |
| 20260904053021 | 17 | 264 | 6.4 | 14.5 | 0.00 | 0.00 | 0.00 | 75 | 1014.1 |
| 20260904052519 | 17 | 262 | 8.0 | 22.5 | 0.00 | 0.00 | 0.00 | 75 | 1014.2 |
| 20260904052017 | 17 | 275 | 6.4 | 22.5 | 0.00 | 0.00 | 0.00 | 75 | 1014.1 |
| 20260904051535 | 17 | 271 | 4.8 | 14.5 | 0.00 | 0.00 | 0.00 | 74 | 1014.2 |
| 20260904051033 | 17 | 269 | 8.0 | 14.5 | 0.00 | 0.00 | 0.00 | 75 | 1014.1 |
| 20260904050532 | 17 | 280 | 4.8 | 11.3 | 0.00 | 0.00 | 0.00 | 74 | 1014.2 |
| 20260904050030 | 17 | 280 | 6.4 | 14.5 | 0.00 | 0.00 | 0.00 | 75 | 1014.3 |
| 20260904045527 | 17 | 276 | 4.8 | 16.1 | 0.00 | 0.00 | 0.00 | 74 | 1014.2 |
| 20260904045026 | 17 | 292 | 6.4 | 14.5 | 0.00 | 0.00 | 0.00 | 74 | 1014.2 |
| 20260904044524 | 17 | 275 | 6.4 | 17.7 | 0.00 | 0.00 | 0.00 | 74 | 1014.4 |
| 20260904044022 | 17 | 280 | 6.4 | 16.1 | 0.00 | 0.00 | 0.00 | 74 | 1014.5 |
| 20260904043520 | 17 | 271 | 6.4 | 20.9 | 0.00 | 0.00 | 0.00 | 74 | 1014.5 |
| 20260904043018 | 17 | 291 | 4.8 | 14.5 | 0.00 | 0.00 | 0.00 | 73 | 1014.4 |
| 20260904042516 | 17 | 271 | 4.8 | 14.5 | 0.00 | 0.00 | 0.00 | 73 | 1014.4 |
| 20260904042034 | 17 | 248 | 4.8 | 12.9 | 0.00 | 0.00 | 0.00 | 73 | 1014.3 |
| 20260904041533 | 16 | 252 | 6.4 | 16.1 | 0.00 | 0.00 | 0.00 | 73 | 1014.4 |
| 20260904041031 | 16 | 259 | 4.8 | 9.7 | 0.00 | 0.00 | 0.00 | 73 | 1014.4 |
| 20260904040529 | 16 | 254 | 4.8 | 14.5 | 0.00 | 0.00 | 0.00 | 73 | 1014.4 |
| 20260904040027 | 16 | 265 | 3.2 | 11.3 | 0.00 | 0.00 | 0.00 | 73 | 1014.4 |
| 20260904035525 | 16 | 268 | 3.2 | 9.7 | 0.00 | 0.00 | 0.00 | 73 | 1014.4 |
| 20260904035023 | 16 | 260 | 3.2 | 9.7 | 0.00 | 0.00 | 0.00 | 73 | 1014.5 |
| 20260904034521 | 16 | 269 | 3.2 | 11.3 | 0.00 | 0.00 | 0.00 | 72 | 1014.5 |
| 20260904034019 | 16 | 248 | 4.8 | 9.7 | 0.00 | 0.00 | 0.00 | 72 | 1014.6 |
| 20260904033517 | 16 | 254 | 3.2 | 6.4 | 0.00 | 0.00 | 0.00 | 72 | 1014.5 |
| 20260904033036 | 16 | 249 | 4.8 | 11.3 | 0.00 | 0.00 | 0.00 | 72 | 1014.5 |
| 20260904032534 | 16 | 246 | 3.2 | 9.7 | 0.00 | 0.00 | 0.00 | 72 | 1014.5 |
| 20260904032032 | 16 | 269 | 3.2 | 6.4 | 0.00 | 0.00 | 0.00 | 72 | 1014.5 |
| 20260904031530 | 16 | 258 | 4.8 | 14.5 | 0.00 | 0.00 | 0.00 | 72 | 1014.7 |
| 20260904031028 | 16 | 263 | 6.4 | 11.3 | 0.00 | 0.00 | 0.00 | 72 | 1014.9 |
| 20260904030526 | 16 | 255 | 4.8 | 6.4 | 0.00 | 0.00 | 0.00 | 72 | 1014.7 |
| 20260904030025 | 16 | 265 | 3.2 | 11.3 | 0.00 | 0.00 | 0.00 | 72 | 1014.7 |
| 20260904025522 | 16 | 269 | 3.2 | 6.4 | 0.00 | 0.00 | 0.00 | 71 | 1014.6 |
| 20260904025020 | 16 | 249 | 3.2 | 6.4 | 0.00 | 0.00 | 0.00 | 71 | 1014.5 |
| 20260904024519 | 16 | 256 | 3.2 | 11.3 | 0.00 | 0.00 | 0.00 | 71 | 1014.6 |
| 20260904024048 | 16 | 258 | 3.2 | 9.7 | 0.00 | 0.00 | 0.00 | 71 | 1014.7 |
| 20260904024016 | 16 | 258 | 3.2 | 9.7 | 0.00 | 0.00 | 0.00 | 71 | 1014.7 |
| 20260904023535 | 16 | 247 | 3.2 | 9.7 | 0.00 | 0.00 | 0.00 | 70 | 1014.6 |
| 20260904023033 | 16 | 246 | 3.2 | 6.4 | 0.00 | 0.00 | 0.00 | 70 | 1014.7 |
| 20260904022531 | 16 | 240 | 3.2 | 6.4 | 0.00 | 0.00 | 0.00 | 70 | 1014.7 |
| 20260904022029 | 16 | 251 | 3.2 | 6.4 | 0.00 | 0.00 | 0.00 | 70 | 1014.6 |
| 20260904021527 | 16 | 260 | 3.2 | 9.7 | 0.00 | 0.00 | 0.00 | 70 | 1014.7 |
| 20260904021025 | 16 | 271 | 3.2 | 12.9 | 0.00 | 0.00 | 0.00 | 70 | 1014.7 |
| 20260904020524 | 16 | 256 | 3.2 | 9.7 | 0.00 | 0.00 | 0.00 | 70 | 1014.7 |
| 20260904020022 | 16 | 263 | 4.8 | 11.3 | 0.00 | 0.00 | 0.00 | 70 | 1014.7 |
| 20260904015520 | 16 | 262 | 3.2 | 9.7 | 0.00 | 0.00 | 0.00 | 70 | 1014.7 |
| 20260904015018 | 16 | 262 | 4.8 | 11.3 | 0.00 | 0.00 | 0.00 | 70 | 1014.8 |
| 20260904014516 | 16 | 251 | 4.8 | 11.3 | 0.00 | 0.00 | 0.00 | 70 | 1014.7 |
| 20260904014034 | 16 | 263 | 4.8 | 14.5 | 0.00 | 0.00 | 0.00 | 70 | 1014.7 |
| 20260904013532 | 16 | 256 | 4.8 | 12.9 | 0.00 | 0.00 | 0.00 | 70 | 1014.8 |
| 20260904013031 | 16 | 271 | 4.8 | 11.3 | 0.00 | 0.00 | 0.00 | 70 | 1014.8 |
| 20260904012528 | 16 | 244 | 3.2 | 11.3 | 0.00 | 0.00 | 0.00 | 70 | 1014.7 |
| 20260904012027 | 16 | 256 | 4.8 | 11.3 | 0.00 | 0.00 | 0.00 | 70 | 1014.8 |
| 20260904011525 | 16 | 246 | 3.2 | 6.4 | 0.00 | 0.00 | 0.00 | 69 | 1014.9 |
| 20260904011023 | 16 | 245 | 3.2 | 9.7 | 0.00 | 0.00 | 0.00 | 69 | 1014.9 |
| 20260904010521 | 16 | 213 | 1.6 | 9.7 | 0.00 | 0.00 | 0.00 | 69 | 1015.0 |
| 20260904010044 | 16 | 241 | 1.6 | 6.4 | 0.00 | 0.00 | 0.00 | 69 | 1015.0 |
| 20260904005525 | 16 | 241 | 1.6 | 6.4 | 0.00 | 0.00 | 0.00 | 69 | 1015.0 |
| 20260904005023 | 17 | 245 | 3.2 | 6.4 | 0.00 | 0.00 | 0.00 | 69 | 1015.0 |
| 20260904004521 | 17 | 220 | 1.6 | 6.4 | 0.00 | 0.00 | 0.00 | 69 | 1015.1 |
| 20260904004019 | 17 | 222 | 1.6 | 6.4 | 0.00 | 0.00 | 0.00 | 69 | 1015.2 |
| 20260904003517 | 17 | 202 | 1.6 | 4.8 | 0.00 | 0.00 | 0.00 | 69 | 1015.2 |
| 20260904003035 | 17 | 211 | 3.2 | 11.3 | 0.00 | 0.00 | 0.00 | 68 | 1015.3 |
| 20260904002533 | 17 | 202 | 1.6 | 4.8 | 0.00 | 0.00 | 0.00 | 68 | 1015.2 |
| 20260904002032 | 17 | 218 | 1.6 | 4.8 | 0.00 | 0.00 | 0.00 | 68 | 1015.4 |
| 20260904001530 | 17 | 236 | 3.2 | 9.7 | 0.00 | 0.00 | 0.00 | 68 | 1015.5 |
| 20260904001028 | 17 | 234 | 3.2 | 9.7 | 0.00 | 0.00 | 0.00 | 68 | 1015.5 |
| 20260904000526 | 17 | 232 | 3.2 | 4.8 | 0.00 | 0.00 | 0.00 | 68 | 1015.4 |
| 20260904000024 | 17 | 205 | 3.2 | 6.4 | 0.00 | 0.00 | 0.00 | 68 | 1015.4 |
| 20260903235522 | 17 | 194 | 3.2 | 6.4 | 0.00 | 0.00 | 0.00 | 68 | 1015.4 |
| 20260903235021 | 17 | 234 | 3.2 | 9.7 | 0.00 | 0.00 | 0.00 | 68 | 1015.4 |
| 20260903234519 | 17 | 215 | 1.6 | 6.4 | 0.00 | 0.00 | 0.00 | 68 | 1015.5 |
| 20260903234048 | 17 | 203 | 3.2 | 4.8 | 0.00 | 0.00 | 0.00 | 68 | 1015.5 |
| 20260903234017 | 17 | 203 | 3.2 | 4.8 | 0.00 | 0.00 | 0.00 | 68 | 1015.5 |
| 20260903233535 | 17 | 207 | 3.2 | 6.4 | 0.00 | 0.00 | 0.00 | 68 | 1015.6 |
| 20260903233034 | 17 | 196 | 1.6 | 4.8 | 0.00 | 0.00 | 0.00 | 68 | 1015.8 |
| 20260903232532 | 17 | 208 | 1.6 | 3.2 | 0.00 | 0.00 | 0.00 | 68 | 1015.8 |
| 20260903232029 | 17 | 205 | 1.6 | 9.7 | 0.00 | 0.00 | 0.00 | 68 | 1015.9 |
| 20260903231528 | 17 | 194 | 1.6 | 3.2 | 0.00 | 0.00 | 0.00 | 68 | 1015.9 |
| 20260903231025 | 17 | 196 | 1.6 | 4.8 | 0.00 | 0.00 | 0.00 | 68 | 1015.9 |
| 20260903230523 | 17 | 202 | 1.6 | 6.4 | 0.00 | 0.00 | 0.00 | 68 | 1015.9 |
| 20260903230022 | 17 | 196 | 1.6 | 4.8 | 0.00 | 0.00 | 0.00 | 68 | 1015.9 |
| 20260903225520 | 17 | 187 | 1.6 | 4.8 | 0.00 | 0.00 | 0.00 | 68 | 1016.1 |
| 20260903225018 | 17 | 182 | 0.0 | 3.2 | 0.00 | 0.00 | 0.00 | 68 | 1016.1 |
| 20260903224516 | 17 | 216 | 0.0 | 1.6 | 0.00 | 0.00 | 0.00 | 68 | 1016.2 |
| 20260903224034 | 17 | 179 | 0.0 | 3.2 | 0.00 | 0.00 | 0.00 | 68 | 1016.2 |
| 20260903223532 | 17 | 188 | 0.0 | 3.2 | 0.00 | 0.00 | 0.00 | 67 | 1016.2 |
| 20260903223030 | 17 | 0.0 | 0.0 | 0.00 | 0.00 | 0.00 | 67 | 1016.2 | |
| 20260903222529 | 17 | 0.0 | 0.0 | 0.00 | 0.00 | 0.00 | 67 | 1016.2 | |
| 20260903222027 | 17 | 0.0 | 0.0 | 0.00 | 0.00 | 0.00 | 67 | 1016.2 | |
| 20260903221525 | 17 | 0.0 | 0.0 | 0.00 | 0.00 | 0.00 | 67 | 1016.2 | |
| 20260903221023 | 17 | 0.0 | 0.0 | 0.00 | 0.00 | 0.00 | 66 | 1016.1 | |
| 20260903220521 | 17 | 0.0 | 0.0 | 0.00 | 0.00 | 0.00 | 66 | 1016.2 | |
| 20260903220022 | 17 | 0.0 | 0.0 | 0.00 | 0.00 | 0.00 | 66 | 1016.3 | |
| 20260903215517 | 17 | 0.0 | 0.0 | 0.00 | 0.00 | 0.00 | 66 | 1016.4 | |
| 20260903215049 | 17 | 247 | 0.0 | 4.8 | 0.00 | 0.00 | 0.00 | 65 | 1016.4 |
| 20260903215015 | 17 | 247 | 0.0 | 4.8 | 0.00 | 0.00 | 0.00 | 65 | 1016.4 |
| 20260903214534 | 17 | 251 | 1.6 | 4.8 | 0.00 | 0.00 | 0.00 | 65 | 1016.4 |
| 20260903214032 | 17 | 241 | 1.6 | 3.2 | 0.00 | 0.00 | 0.00 | 65 | 1016.5 |
| 20260903213530 | 17 | 267 | 0.0 | 4.8 | 0.00 | 0.00 | 0.00 | 65 | 1016.5 |
| 20260903213028 | 17 | 0.0 | 0.0 | 0.00 | 0.00 | 0.00 | 65 | 1016.5 | |
| 20260903212526 | 17 | 237 | 0.0 | 3.2 | 0.00 | 0.00 | 0.00 | 65 | 1016.5 |
| 20260903212025 | 18 | 246 | 0.0 | 3.2 | 0.00 | 0.00 | 0.00 | 65 | 1016.6 |
| 20260903211523 | 18 | 0.0 | 0.0 | 0.00 | 0.00 | 0.00 | 65 | 1016.5 | |
| 20260903211021 | 18 | 226 | 0.0 | 3.2 | 0.00 | 0.00 | 0.00 | 65 | 1016.5 |
| 20260903210519 | 18 | 238 | 1.6 | 4.8 | 0.00 | 0.00 | 0.00 | 65 | 1016.7 |
| 20260903210017 | 18 | 262 | 1.6 | 4.8 | 0.00 | 0.00 | 0.00 | 65 | 1016.7 |
| 20260903205516 | 18 | 0.0 | 0.0 | 0.00 | 0.00 | 0.00 | 65 | 1016.6 | |
| 20260903205034 | 18 | 260 | 1.6 | 3.2 | 0.00 | 0.00 | 0.00 | 65 | 1016.7 |
| 20260903204532 | 18 | 280 | 1.6 | 4.8 | 0.00 | 0.00 | 0.00 | 65 | 1016.7 |
| 20260903204030 | 18 | 249 | 1.6 | 3.2 | 0.00 | 0.00 | 0.00 | 65 | 1016.6 |
| 20260903203528 | 18 | 268 | 3.2 | 6.4 | 0.00 | 0.00 | 0.00 | 65 | 1016.6 |
| 20260903203026 | 18 | 267 | 1.6 | 6.4 | 0.00 | 0.00 | 0.00 | 65 | 1016.7 |
| 20260903202525 | 18 | 274 | 1.6 | 6.4 | 0.00 | 0.00 | 0.00 | 65 | 1016.7 |
| 20260903202022 | 18 | 285 | 3.2 | 6.4 | 0.00 | 0.00 | 0.00 | 65 | 1016.7 |
| 20260903201521 | 18 | 277 | 3.2 | 6.4 | 0.00 | 0.00 | 0.00 | 65 | 1016.6 |
| 20260903201019 | 18 | 276 | 3.2 | 11.3 | 0.00 | 0.00 | 0.00 | 64 | 1016.6 |
| 20260903200517 | 18 | 274 | 3.2 | 11.3 | 0.00 | 0.00 | 0.00 | 64 | 1016.7 |
| 20260903200035 | 18 | 272 | 3.2 | 6.4 | 0.00 | 0.00 | 0.00 | 64 | 1016.6 |
| 20260903195533 | 18 | 258 | 3.2 | 9.7 | 0.00 | 0.00 | 0.00 | 64 | 1016.7 |
| 20260903195032 | 18 | 257 | 4.8 | 6.4 | 0.00 | 0.00 | 0.00 | 64 | 1016.7 |
| 20260903194530 | 18 | 252 | 3.2 | 12.9 | 0.00 | 0.00 | 0.00 | 64 | 1016.7 |
| 20260903194028 | 18 | 244 | 3.2 | 4.8 | 0.00 | 0.00 | 0.00 | 64 | 1016.7 |
| 20260903193526 | 18 | 248 | 3.2 | 4.8 | 0.00 | 0.00 | 0.00 | 64 | 1016.8 |
| 20260903193024 | 18 | 243 | 3.2 | 6.4 | 0.00 | 0.00 | 0.00 | 64 | 1016.8 |
| 20260903192522 | 18 | 247 | 1.6 | 4.8 | 0.00 | 0.00 | 0.00 | 64 | 1016.8 |
| 20260903192020 | 18 | 249 | 3.2 | 6.4 | 0.00 | 0.00 | 0.00 | 64 | 1016.8 |
| 20260903191518 | 18 | 256 | 3.2 | 6.4 | 0.00 | 0.00 | 0.00 | 65 | 1016.9 |
| 20260903191049 | 18 | 245 | 1.6 | 6.4 | 0.00 | 0.00 | 0.00 | 64 | 1017.0 |
| 20260903191016 | 18 | 245 | 1.6 | 6.4 | 0.00 | 0.00 | 0.00 | 64 | 1017.0 |
| 20260903190534 | 18 | 238 | 1.6 | 4.8 | 0.00 | 0.00 | 0.00 | 64 | 1017.0 |
| 20260903190033 | 18 | 249 | 0.0 | 3.2 | 0.00 | 0.00 | 0.00 | 64 | 1017.0 |
| 20260903185531 | 18 | 0.0 | 0.0 | 0.00 | 0.00 | 0.00 | 64 | 1017.0 | |
| 20260903185029 | 18 | 0.0 | 0.0 | 0.00 | 0.00 | 0.00 | 63 | 1016.9 | |
| 20260903184527 | 18 | 246 | 0.0 | 3.2 | 0.00 | 0.00 | 0.00 | 63 | 1017.0 |
| 20260903184025 | 19 | 0.0 | 0.0 | 0.00 | 0.00 | 0.00 | 63 | 1016.9 | |
| 20260903183523 | 19 | 0.0 | 0.0 | 0.00 | 0.00 | 0.00 | 62 | 1017.0 | |
| 20260903183021 | 19 | 0.0 | 0.0 | 0.00 | 0.00 | 0.00 | 62 | 1017.0 | |
| 20260903182519 | 19 | 0.0 | 0.0 | 0.00 | 0.00 | 0.00 | 62 | 1017.0 | |
| 20260903182018 | 19 | 0.0 | 0.0 | 0.00 | 0.00 | 0.00 | 61 | 1017.0 | |
| 20260903181515 | 20 | 0.0 | 0.0 | 0.00 | 0.00 | 0.00 | 61 | 1017.0 | |
| 20260903181034 | 20 | 0.0 | 0.0 | 0.00 | 0.00 | 0.00 | 61 | 1017.0 | |
| 20260903180532 | 20 | 0.0 | 0.0 | 0.00 | 0.00 | 0.00 | 60 | 1017.0 | |
| 20260903180030 | 20 | 0.0 | 0.0 | 0.00 | 0.00 | 0.00 | 60 | 1016.9 | |
| 20260903175528 | 20 | 0.0 | 0.0 | 0.00 | 0.00 | 0.00 | 60 | 1016.9 | |
| 20260903175026 | 20 | 0.0 | 0.0 | 0.00 | 0.00 | 0.00 | 60 | 1016.9 | |
| 20260903174525 | 20 | 0.0 | 0.0 | 0.00 | 0.00 | 0.00 | 59 | 1016.9 | |
| 20260903174022 | 20 | 0.0 | 0.0 | 0.00 | 0.00 | 0.00 | 59 | 1016.9 | |
| 20260903173521 | 20 | 0.0 | 0.0 | 0.00 | 0.00 | 0.00 | 59 | 1016.8 | |
| 20260903173019 | 20 | 0.0 | 0.0 | 0.00 | 0.00 | 0.00 | 59 | 1016.7 | |
| 20260903172517 | 20 | 0.0 | 0.0 | 0.00 | 0.00 | 0.00 | 58 | 1016.7 | |
| 20260903172036 | 21 | 0.0 | 0.0 | 0.00 | 0.00 | 0.00 | 58 | 1016.7 | |
| 20260903171533 | 21 | 0.0 | 0.0 | 0.00 | 0.00 | 0.00 | 57 | 1016.7 | |
| 20260903171032 | 21 | 0.0 | 0.0 | 0.00 | 0.00 | 0.00 | 57 | 1016.7 | |
| 20260903170530 | 21 | 0.0 | 0.0 | 0.00 | 0.00 | 0.00 | 56 | 1016.7 | |
| 20260903170028 | 21 | 282 | 1.6 | 4.8 | 0.00 | 0.00 | 0.00 | 55 | 1016.6 |
| 20260903165526 | 21 | 288 | 3.2 | 9.7 | 0.00 | 0.00 | 0.00 | 55 | 1016.7 |
| 20260903165024 | 21 | 285 | 3.2 | 6.4 | 0.00 | 0.00 | 0.00 | 54 | 1016.7 |
| 20260903164522 | 21 | 279 | 4.8 | 12.9 | 0.00 | 0.00 | 0.00 | 54 | 1016.6 |
| 20260903164020 | 21 | 292 | 6.4 | 11.3 | 0.00 | 0.00 | 0.00 | 54 | 1016.7 |
| 20260903163518 | 21 | 287 | 4.8 | 9.7 | 0.00 | 0.00 | 0.00 | 54 | 1016.6 |
| 20260903163048 | 21 | 280 | 3.2 | 4.8 | 0.00 | 0.00 | 0.00 | 54 | 1016.6 |
| 20260903163016 | 21 | 280 | 3.2 | 4.8 | 0.00 | 0.00 | 0.00 | 54 | 1016.6 |
| 20260903162535 | 21 | 292 | 0.0 | 4.8 | 0.00 | 0.00 | 0.00 | 54 | 1016.6 |